Location: Raleigh
(35.7720°N, 78.6390°W)
Time: 12:50:59
(UTC-05:00)

FO-29 - Visible Passes

Search period start: 24 February 2018 00:00
Search period end: 06 March 2018 00:00
Orbit: 800 x 1322 km, 98.5° (Epoch: 24 February)

Date Brightness Start Highest point End Pass type
(mag) Time Alt. Az. Time Alt. Az. Time Alt. Az.
24 Feb 11.8 06:16:38 10° ESE 06:20:12 19° ENE 06:23:47 10° NNE visible
24 Feb 10.5 19:10:06 10° NE 19:15:36 28° E 19:21:35 10° SSE visible
24 Feb 10.6 20:54:40 10° N 21:00:38 45° WNW 21:07:18 10° SW visible
25 Feb 9.6 19:59:18 10° NNE 20:05:44 71° ESE 20:12:58 10° S visible
25 Feb 11.9 21:46:07 10° NNW 21:50:18 19° WNW 21:54:48 10° WSW visible
26 Feb 11.8 06:11:52 10° ESE 06:15:12 17° ENE 06:18:32 10° NNE visible
26 Feb 10.6 19:05:10 10° NE 19:10:38 27° E 19:16:33 10° SSE visible
26 Feb 10.5 20:49:32 10° N 20:55:42 49° WNW 21:02:34 10° SW visible
27 Feb 9.7 19:54:15 10° NNE 20:00:48 67° ESE 20:08:06 10° S visible
27 Feb 11.9 21:40:49 10° NNW 21:45:23 20° WNW 21:50:17 10° WSW visible
28 Feb 11.9 06:07:07 10° E 06:10:11 16° ENE 06:13:17 10° NNE visible
28 Feb 10.7 19:00:14 10° NE 19:05:40 25° E 19:11:31 10° SSE visible
28 Feb 10.5 20:44:25 10° N 20:50:46 53° WNW 20:57:50 10° SW visible
01 Mar 9.8 19:49:14 10° NNE 19:55:52 63° ESE 20:03:14 10° S visible
01 Mar 11.8 21:35:34 10° NNW 21:40:28 22° WNW 21:45:45 10° WSW visible
02 Mar 12.0 06:02:23 10° E 06:05:11 15° ENE 06:08:01 10° NNE visible
02 Mar 10.8 18:55:19 10° NE 19:00:42 24° E 19:06:27 10° SE visible
02 Mar 10.4 20:39:19 10° N 20:45:50 57° WNW 20:53:05 10° SSW visible
03 Mar 9.9 19:44:13 10° NNE 19:50:56 59° E 19:58:21 10° S visible
03 Mar 11.7 21:30:21 10° NNW 21:35:34 24° WNW 21:41:11 10° WSW visible
04 Mar 12.1 05:57:42 10° E 06:00:11 14° ENE 06:02:43 10° NNE visible
04 Mar 10.9 18:50:26 10° NE 18:55:45 23° E 19:01:23 10° SE visible
04 Mar 10.3 20:34:14 10° N 20:40:56 61° WNW 20:48:20 10° SSW visible
05 Mar 10.0 19:39:13 10° NNE 19:46:00 56° E 19:53:27 10° S visible
05 Mar 11.7 21:25:10 10° NNW 21:30:40 27° WNW 21:36:36 10° WSW visible
